QPF
0.00 0.00 0.00 0.00 0.00 0.00 0.00 0.00 0.00 0.00 0.00 0.00 0.00 0.00 0.00 0.00 0.00 0.00 0.00 0.00 0.00 0.00 0.00 0.00 0.00 0.00 0.00 0.00 0.00 0.00 0.00 0.00 0.01 0.01 0.02 0.03 0.03 0.02 0.02 0.02 0.03 0.05 0.05 0.05
0.00 0.00 0.00 0.00 0.00 0.00 0.00 0.00 0.00 0.00 0.00 0.00 0.00 0.00 0.00 0.00 0.00 0.00 0.00 0.00 0.00 0.00 0.00 0.00 0.00 0.00 0.00 0.00 0.00 0.00 0.00 0.00 0.01 0.01 0.02 0.02 0.01 0.01 0.01 0.02 0.02 0.04 0.07 0.07
0.00 0.00 0.00 0.00 0.00 0.00 0.00 0.00 0.00 0.00 0.00 0.00 0.00 0.00 0.00 0.00 0.00 0.00 0.00 0.00 0.00 0.00 0.00 0.00 0.00 0.00 0.01 0.01 0.01 0.01 0.00 0.01 0.02 0.02 0.02 0.01 0.00 0.01 0.02 0.02 0.03 0.07 0.10 0.11
0.00 0.00 0.00 0.00 0.00 0.00 0.00 0.00 0.00 0.00 0.00 0.00 0.00 0.00 0.00 0.00 0.00 0.00 0.00 0.00 0.01 0.00 0.00 0.00 0.00 0.01 0.02 0.02 0.02 0.02 0.02 0.02 0.02 0.02 0.01 0.01 0.01 0.02 0.02 0.02 0.05 0.08 0.09 0.09
0.00 0.00 0.00 0.00 0.00 0.00 0.00 0.00 0.00 0.00 0.00 0.00 0.00 0.00 0.00 0.00 0.00 0.00 0.00 0.00 0.02 0.01 0.00 0.00 0.01 0.02 0.02 0.03 0.03 0.04 0.04 0.03 0.02 0.01 0.01 0.01 0.01 0.03 0.04 0.04 0.05 0.05 0.05 0.03
0.00 0.00 0.00 0.00 0.00 0.00 0.00 0.00 0.00 0.00 0.00 0.00 0.00 0.00 0.00 0.00 0.00 0.00 0.00 0.00 0.01 0.02 0.00 0.00 0.01 0.02 0.03 0.04 0.07 0.06 0.03 0.02 0.02 0.01 0.01 0.02 0.02 0.03 0.03 0.03 0.02 0.02 0.02 0.01
0.00 0.00 0.00 0.00 0.00 0.00 0.01 0.01 0.00 0.00 0.00 0.00 0.00 0.00 0.00 0.00 0.00 0.00 0.00 0.00 0.00 0.01 0.00 0.01 0.01 0.02 0.03 0.04 0.04 0.03 0.02 0.01 0.01 0.01 0.02 0.03 0.02 0.03 0.04 0.02 0.01 0.01 0.01 0.00
0.00 0.00 0.00 0.00 0.00 0.00 0.00 0.00 0.00 0.00 0.00 0.00 0.00 0.00 0.00 0.00 0.00 0.00 0.00 0.00 0.00 0.00 0.01 0.02 0.02 0.02 0.03 0.03 0.03 0.02 0.02 0.02 0.02 0.02 0.02 0.03 0.03 0.03 0.02 0.01 0.01 0.01 0.01 0.00
0.00 0.00 0.00 0.00 0.00 0.00 0.00 0.00 0.00 0.00 0.00 0.00 0.00 0.00 0.00 0.00 0.00 0.00 0.00 0.01 0.01 0.01 0.03 0.03 0.03 0.03 0.04 0.06 0.05 0.03 0.03 0.03 0.03 0.04 0.03 0.04 0.04 0.03 0.02 0.02 0.01 0.01 0.01 0.01
0.00 0.00 0.00 0.00 0.00 0.00 0.00 0.00 0.00 0.00 0.00 0.00 0.00 0.01 0.01 0.01 0.01 0.01 0.01 0.01 0.01 0.01 0.01 0.02 0.03 0.03 0.03 0.04 0.04 0.04 0.04 0.04 0.05 0.06 0.06 0.05 0.03 0.04 0.03 0.03 0.03 0.02 0.02 0.01
0.00 0.00 0.00 0.00 0.01 0.01 0.01 0.00 0.00 0.00 0.01 0.01 0.01 0.02 0.02 0.02 0.02 0.01 0.00 0.01 0.01 0.01 0.01 0.01 0.03 0.03 0.03 0.04 0.05 0.04 0.04 0.06 0.05 0.06 0.06 0.08 0.08 0.06 0.06 0.04 0.04 0.02 0.02 0.02
0.01 0.00 0.00 0.00 0.00 0.01 0.01 0.00 0.00 0.00 0.00 0.01 0.02 0.02 0.02 0.02 0.02 0.01 0.01 0.01 0.01 0.01 0.02 0.03 0.04 0.05 0.05 0.05 0.06 0.05 0.05 0.06 0.08 0.10 0.09 0.10 0.11 0.08 0.07 0.06 0.06 0.05 0.03 0.02
0.00 0.00 0.00 0.00 0.00 0.01 0.01 0.00 0.00 0.01 0.01 0.01 0.01 0.01 0.01 0.02 0.02 0.01 0.02 0.02 0.02 0.03 0.04 0.06 0.09 0.12 0.11 0.09 0.08 0.07 0.06 0.07 0.08 0.09 0.08 0.07 0.06 0.06 0.06 0.06 0.06 0.05 0.05 0.03
0.00 0.00 0.01 0.01 0.01 0.01 0.01 0.01 0.01 0.01 0.01 0.01 0.01 0.01 0.01 0.02 0.02 0.02 0.02 0.03 0.03 0.04 0.04 0.04 0.07 0.10 0.12 0.12 0.12 0.11 0.10 0.09 0.08 0.07 0.07 0.07 0.07 0.05 0.04 0.03 0.03 0.03 0.03 0.02
0.01 0.01 0.01 0.01 0.01 0.02 0.02 0.01 0.01 0.01 0.01 0.01 0.01 0.01 0.02 0.03 0.03 0.03 0.03 0.03 0.04 0.05 0.05 0.06 0.06 0.06 0.08 0.10 0.12 0.14 0.13 0.13 0.12 0.12 0.10 0.07 0.05 0.04 0.03 0.02 0.02 0.02 0.02 0.01
0.02 0.02 0.02 0.02 0.02 0.02 0.02 0.02 0.02 0.02 0.01 0.00 0.00 0.00 0.01 0.02 0.05 0.08 0.06 0.03 0.05 0.08 0.08 0.06 0.04 0.04 0.05 0.06 0.08 0.10 0.12 0.12 0.12 0.12 0.13 0.12 0.08 0.06 0.04 0.03 0.02 0.02 0.01 0.01
0.03 0.03 0.03 0.03 0.03 0.03 0.03 0.02 0.03 0.04 0.03 0.02 0.01 0.01 0.01 0.03 0.04 0.07 0.08 0.06 0.03 0.02 0.03 0.04 0.05 0.05 0.05 0.04 0.05 0.06 0.08 0.10 0.12 0.10 0.08 0.06 0.04 0.04 0.03 0.03 0.03 0.02 0.02 0.01
0.04 0.03 0.04 0.03 0.04 0.04 0.03 0.03 0.05 0.06 0.06 0.06 0.05 0.02 0.02 0.03 0.05 0.05 0.06 0.06 0.03 0.02 0.02 0.03 0.04 0.06 0.07 0.06 0.06 0.06 0.07 0.09 0.09 0.09 0.07 0.05 0.04 0.03 0.03 0.03 0.03 0.03 0.03 0.03
0.02 0.03 0.03 0.03 0.03 0.03 0.03 0.04 0.06 0.05 0.06 0.10 0.09 0.06 0.04 0.04 0.05 0.05 0.05 0.04 0.03 0.02 0.01 0.02 0.03 0.04 0.05 0.05 0.05 0.04 0.04 0.04 0.05 0.06 0.05 0.05 0.04 0.03 0.03 0.03 0.02 0.02 0.02 0.02
0.01 0.02 0.01 0.01 0.02 0.03 0.04 0.05 0.07 0.05 0.05 0.07 0.09 0.07 0.06 0.05 0.04 0.03 0.03 0.02 0.02 0.01 0.01 0.01 0.01 0.02 0.02 0.03 0.04 0.03 0.04 0.03 0.03 0.04 0.04 0.03 0.03 0.02 0.03 0.02 0.02 0.02 0.02 0.01
0.03 0.03 0.02 0.01 0.01 0.02 0.05 0.06 0.06 0.07 0.06 0.05 0.07 0.06 0.06 0.06 0.04 0.03 0.02 0.02 0.02 0.01 0.02 0.02 0.02 0.02 0.02 0.03 0.04 0.04 0.05 0.06 0.05 0.05 0.04 0.04 0.03 0.03 0.03 0.02 0.02 0.02 0.02 0.01
0.04 0.04 0.02 0.02 0.02 0.02 0.05 0.06 0.06 0.07 0.06 0.05 0.04 0.04 0.05 0.05 0.05 0.02 0.02 0.02 0.02 0.02 0.02 0.02 0.02 0.02 0.02 0.03 0.04 0.05 0.05 0.05 0.05 0.06 0.06 0.06 0.05 0.04 0.04 0.04 0.04 0.03 0.03 0.02
0.04 0.03 0.02 0.02 0.03 0.05 0.07 0.06 0.05 0.04 0.04 0.03 0.03 0.03 0.04 0.05 0.05 0.02 0.01 0.01 0.02 0.03 0.04 0.04 0.03 0.03 0.03 0.03 0.03 0.04 0.05 0.05 0.05 0.06 0.07 0.07 0.06 0.05 0.06 0.06 0.06 0.06 0.05 0.04
0.03 0.03 0.03 0.04 0.04 0.07 0.08 0.06 0.05 0.05 0.04 0.03 0.03 0.03 0.04 0.06 0.05 0.02 0.02 0.02 0.02 0.03 0.04 0.06 0.07 0.06 0.04 0.03 0.03 0.03 0.03 0.04 0.05 0.06 0.06 0.07 0.06 0.06 0.07 0.08 0.07 0.07 0.06 0.06
0.03 0.03 0.03 0.04 0.05 0.07 0.09 0.07 0.06 0.06 0.03 0.04 0.04 0.04 0.06 0.06 0.04 0.03 0.03 0.03 0.03 0.03 0.04 0.06 0.08 0.08 0.08 0.07 0.05 0.03 0.03 0.03 0.04 0.04 0.04 0.05 0.05 0.05 0.05 0.06 0.07 0.06 0.05 0.04
0.02 0.02 0.02 0.03 0.03 0.05 0.07 0.06 0.06 0.05 0.03 0.04 0.05 0.06 0.07 0.06 0.05 0.06 0.06 0.06 0.05 0.06 0.06 0.07 0.07 0.08 0.09 0.09 0.08 0.05 0.04 0.03 0.03 0.03 0.04 0.04 0.04 0.04 0.05 0.05 0.06 0.06 0.06 0.06
0.02 0.02 0.01 0.02 0.02 0.03 0.05 0.05 0.05 0.04 0.04 0.04 0.05 0.05 0.05 0.06 0.08 0.08 0.09 0.10 0.11 0.11 0.10 0.10 0.09 0.08 0.09 0.09 0.09 0.08 0.06 0.06 0.05 0.04 0.03 0.03 0.04 0.04 0.04 0.05 0.05 0.06 0.07 0.07
MSLP
1013.84 1013.90 1014.03 1014.25 1014.54 1014.86 1015.17 1015.42 1015.58 1015.60 1015.50 1015.26 1014.92 1014.51 1014.06 1013.62 1013.19 1012.81 1012.47 1012.18 1011.95 1011.76 1011.64 1011.60 1011.64 1011.78 1012.03 1012.37 1012.79 1013.27 1013.76 1014.24 1014.67 1015.04 1015.35 1015.58 1015.77 1015.92 1016.06 1016.21 1016.36 1016.54 1016.72 1016.90
1014.19 1014.31 1014.48 1014.72 1015.00 1015.31 1015.60 1015.84 1015.99 1016.04 1015.98 1015.80 1015.52 1015.16 1014.76 1014.32 1013.88 1013.43 1012.99 1012.57 1012.18 1011.83 1011.54 1011.33 1011.23 1011.23 1011.37 1011.63 1011.99 1012.43 1012.93 1013.44 1013.93 1014.39 1014.79 1015.14 1015.43 1015.69 1015.92 1016.14 1016.34 1016.54 1016.74 1016.92
1014.65 1014.83 1015.05 1015.32 1015.61 1015.91 1016.18 1016.40 1016.54 1016.59 1016.53 1016.38 1016.13 1015.81 1015.43 1014.99 1014.52 1014.03 1013.51 1012.99 1012.48 1012.00 1011.56 1011.20 1010.95 1010.81 1010.82 1010.96 1011.23 1011.60 1012.06 1012.56 1013.08 1013.60 1014.09 1014.54 1014.96 1015.33 1015.66 1015.96 1016.23 1016.46 1016.66 1016.83
1015.22 1015.45 1015.72 1016.00 1016.29 1016.57 1016.82 1017.01 1017.12 1017.15 1017.09 1016.95 1016.71 1016.41 1016.04 1015.61 1015.14 1014.62 1014.06 1013.48 1012.89 1012.31 1011.76 1011.28 1010.89 1010.60 1010.45 1010.45 1010.57 1010.83 1011.19 1011.64 1012.14 1012.68 1013.24 1013.79 1014.31 1014.80 1015.24 1015.64 1015.97 1016.25 1016.47 1016.64
1015.87 1016.13 1016.41 1016.69 1016.96 1017.21 1017.41 1017.56 1017.64 1017.64 1017.56 1017.42 1017.20 1016.91 1016.56 1016.16 1015.71 1015.20 1014.65 1014.05 1013.43 1012.79 1012.17 1011.59 1011.07 1010.64 1010.32 1010.13 1010.08 1010.17 1010.39 1010.73 1011.17 1011.69 1012.27 1012.88 1013.50 1014.10 1014.66 1015.15 1015.57 1015.90 1016.15 1016.32
1016.52 1016.78 1017.03 1017.28 1017.50 1017.70 1017.85 1017.95 1017.98 1017.96 1017.88 1017.73 1017.53 1017.28 1016.98 1016.62 1016.21 1015.75 1015.24 1014.67 1014.06 1013.41 1012.75 1012.09 1011.46 1010.89 1010.40 1010.02 1009.77 1009.66 1009.69 1009.88 1010.21 1010.67 1011.24 1011.88 1012.57 1013.27 1013.93 1014.52 1015.03 1015.44 1015.73 1015.93
1017.12 1017.32 1017.52 1017.70 1017.85 1017.98 1018.06 1018.11 1018.11 1018.07 1017.98 1017.86 1017.69 1017.49 1017.24 1016.96 1016.62 1016.23 1015.79 1015.28 1014.70 1014.07 1013.40 1012.69 1011.98 1011.28 1010.63 1010.06 1009.60 1009.28 1009.12 1009.13 1009.32 1009.68 1010.20 1010.85 1011.58 1012.34 1013.10 1013.80 1014.40 1014.89 1015.25 1015.49
1017.60 1017.72 1017.83 1017.92 1017.98 1018.02 1018.04 1018.04 1018.01 1017.96 1017.89 1017.80 1017.68 1017.54 1017.36 1017.15 1016.89 1016.58 1016.21 1015.77 1015.25 1014.66 1014.00 1013.28 1012.51 1011.72 1010.93 1010.20 1009.55 1009.03 1008.67 1008.49 1008.53 1008.77 1009.22 1009.84 1010.58 1011.40 1012.23 1013.02 1013.72 1014.30 1014.74 1015.05
1017.95 1017.98 1017.98 1017.96 1017.93 1017.89 1017.84 1017.80 1017.75 1017.71 1017.66 1017.60 1017.53 1017.44 1017.33 1017.18 1016.99 1016.75 1016.44 1016.07 1015.61 1015.07 1014.44 1013.72 1012.93 1012.09 1011.22 1010.36 1009.56 1008.87 1008.34 1007.99 1007.88 1007.99 1008.35 1008.92 1009.65 1010.49 1011.38 1012.24 1013.04 1013.71 1014.24 1014.63
1018.20 1018.12 1018.02 1017.90 1017.77 1017.65 1017.55 1017.48 1017.42 1017.38 1017.36 1017.33 1017.30 1017.25 1017.17 1017.06 1016.91 1016.71 1016.45 1016.12 1015.72 1015.22 1014.64 1013.95 1013.17 1012.32 1011.41 1010.49 1009.60 1008.80 1008.13 1007.65 1007.39 1007.39 1007.64 1008.14 1008.83 1009.67 1010.58 1011.50 1012.37 1013.14 1013.76 1014.25
1018.40 1018.24 1018.04 1017.82 1017.62 1017.44 1017.29 1017.19 1017.13 1017.10 1017.08 1017.07 1017.05 1017.01 1016.94 1016.83 1016.68 1016.49 1016.24 1015.93 1015.56 1015.11 1014.57 1013.94 1013.22 1012.40 1011.51 1010.58 1009.66 1008.79 1008.04 1007.46 1007.09 1006.97 1007.12 1007.53 1008.16 1008.96 1009.87 1010.82 1011.74 1012.59 1013.30 1013.88
1018.62 1018.39 1018.11 1017.83 1017.56 1017.34 1017.16 1017.04 1016.97 1016.93 1016.91 1016.89 1016.86 1016.79 1016.69 1016.55 1016.35 1016.13 1015.86 1015.55 1015.19 1014.78 1014.30 1013.74 1013.09 1012.35 1011.53 1010.65 1009.75 1008.88 1008.09 1007.44 1006.99 1006.77 1006.81 1007.11 1007.65 1008.39 1009.26 1010.21 1011.16 1012.05 1012.84 1013.50
1018.91 1018.62 1018.29 1017.96 1017.65 1017.39 1017.19 1017.05 1016.96 1016.91 1016.87 1016.82 1016.75 1016.63 1016.46 1016.25 1015.99 1015.71 1015.40 1015.07 1014.72 1014.34 1013.92 1013.45 1012.90 1012.26 1011.54 1010.75 1009.91 1009.07 1008.28 1007.59 1007.07 1006.76 1006.69 1006.88 1007.31 1007.96 1008.76 1009.67 1010.61 1011.52 1012.36 1013.09
1019.25 1018.93 1018.56 1018.20 1017.86 1017.58 1017.35 1017.19 1017.08 1017.00 1016.93 1016.84 1016.70 1016.52 1016.27 1015.98 1015.65 1015.30 1014.94 1014.59 1014.24 1013.90 1013.54 1013.16 1012.71 1012.20 1011.59 1010.90 1010.15 1009.37 1008.59 1007.89 1007.32 1006.92 1006.75 1006.82 1007.13 1007.66 1008.37 1009.21 1010.11 1011.02 1011.87 1012.64
1019.61 1019.26 1018.88 1018.49 1018.13 1017.83 1017.59 1017.40 1017.26 1017.15 1017.03 1016.88 1016.68 1016.43 1016.11 1015.75 1015.35 1014.94 1014.54 1014.17 1013.84 1013.53 1013.24 1012.94 1012.60 1012.20 1011.72 1011.14 1010.47 1009.75 1009.01 1008.31 1007.70 1007.23 1006.95 1006.90 1007.09 1007.49 1008.09 1008.84 1009.67 1010.54 1011.38 1012.15
1019.91 1019.54 1019.14 1018.74 1018.37 1018.05 1017.78 1017.57 1017.40 1017.24 1017.08 1016.88 1016.63 1016.32 1015.95 1015.53 1015.09 1014.65 1014.23 1013.86 1013.55 1013.28 1013.05 1012.82 1012.58 1012.28 1011.90 1011.41 1010.84 1010.18 1009.48 1008.78 1008.13 1007.61 1007.24 1007.09 1007.16 1007.44 1007.92 1008.56 1009.31 1010.11 1010.91 1011.66
1020.07 1019.69 1019.28 1018.87 1018.48 1018.14 1017.85 1017.61 1017.41 1017.21 1017.01 1016.77 1016.48 1016.13 1015.73 1015.29 1014.84 1014.39 1013.98 1013.63 1013.34 1013.11 1012.93 1012.77 1012.59 1012.37 1012.07 1011.67 1011.16 1010.56 1009.90 1009.21 1008.56 1008.00 1007.57 1007.34 1007.30 1007.48 1007.85 1008.39 1009.04 1009.76 1010.50 1011.20
1020.05 1019.66 1019.25 1018.82 1018.42 1018.06 1017.75 1017.47 1017.23 1017.00 1016.76 1016.49 1016.18 1015.82 1015.42 1014.99 1014.55 1014.12 1013.73 1013.41 1013.15 1012.96 1012.81 1012.70 1012.57 1012.40 1012.15 1011.80 1011.35 1010.81 1010.19 1009.53 1008.90 1008.33 1007.88 1007.59 1007.49 1007.58 1007.86 1008.30 1008.86 1009.50 1010.16 1010.79
1019.84 1019.44 1019.02 1018.59 1018.17 1017.79 1017.45 1017.15 1016.87 1016.60 1016.34 1016.05 1015.73 1015.38 1014.99 1014.58 1014.17 1013.77 1013.42 1013.13 1012.90 1012.73 1012.60 1012.50 1012.40 1012.25 1012.03 1011.73 1011.33 1010.83 1010.27 1009.67 1009.07 1008.53 1008.09 1007.80 1007.67 1007.72 1007.93 1008.30 1008.78 1009.33 1009.90 1010.47
1019.47 1019.08 1018.65 1018.22 1017.79 1017.39 1017.02 1016.68 1016.37 1016.08 1015.78 1015.48 1015.15 1014.80 1014.43 1014.05 1013.67 1013.32 1012.99 1012.72 1012.51 1012.34 1012.22 1012.11 1012.01 1011.87 1011.67 1011.39 1011.04 1010.60 1010.11 1009.58 1009.06 1008.58 1008.20 1007.94 1007.82 1007.85 1008.04 1008.35 1008.76 1009.23 1009.74 1010.23
1019.02 1018.64 1018.22 1017.78 1017.35 1016.93 1016.53 1016.16 1015.81 1015.47 1015.15 1014.82 1014.49 1014.14 1013.78 1013.42 1013.07 1012.73 1012.43 1012.16 1011.95 1011.77 1011.63 1011.51 1011.39 1011.24 1011.05 1010.80 1010.50 1010.13 1009.72 1009.29 1008.87 1008.49 1008.19 1008.00 1007.92 1007.98 1008.15 1008.43 1008.80 1009.22 1009.65 1010.08
1018.55 1018.18 1017.78 1017.35 1016.91 1016.47 1016.05 1015.64 1015.25 1014.88 1014.51 1014.16 1013.80 1013.44 1013.08 1012.72 1012.37 1012.04 1011.74 1011.47 1011.24 1011.04 1010.87 1010.73 1010.58 1010.43 1010.25 1010.03 1009.78 1009.49 1009.17 1008.86 1008.55 1008.30 1008.10 1008.00 1007.99 1008.08 1008.27 1008.55 1008.88 1009.26 1009.64 1010.03
1018.11 1017.76 1017.37 1016.96 1016.52 1016.07 1015.62 1015.18 1014.75 1014.33 1013.92 1013.52 1013.13 1012.74 1012.36 1011.99 1011.64 1011.30 1010.98 1010.70 1010.44 1010.22 1010.03 1009.85 1009.69 1009.53 1009.37 1009.19 1008.99 1008.79 1008.58 1008.38 1008.20 1008.06 1007.99 1007.98 1008.05 1008.19 1008.41 1008.69 1009.01 1009.36 1009.72 1010.07
1017.71 1017.38 1017.02 1016.62 1016.18 1015.72 1015.25 1014.78 1014.31 1013.84 1013.39 1012.95 1012.52 1012.10 1011.69 1011.30 1010.93 1010.57 1010.24 1009.94 1009.66 1009.42 1009.20 1009.01 1008.84 1008.69 1008.55 1008.41 1008.28 1008.16 1008.05 1007.96 1007.90 1007.88 1007.91 1007.99 1008.13 1008.33 1008.58 1008.87 1009.20 1009.53 1009.88 1010.23
1017.33 1017.03 1016.69 1016.30 1015.88 1015.41 1014.93 1014.43 1013.93 1013.43 1012.94 1012.46 1011.99 1011.55 1011.11 1010.70 1010.32 1009.95 1009.61 1009.29 1009.01 1008.76 1008.53 1008.34 1008.18 1008.04 1007.93 1007.84 1007.77 1007.72 1007.70 1007.71 1007.75 1007.82 1007.94 1008.10 1008.30 1008.55 1008.83 1009.13 1009.46 1009.81 1010.16 1010.52
1016.95 1016.68 1016.36 1015.99 1015.58 1015.12 1014.63 1014.13 1013.61 1013.08 1012.57 1012.07 1011.58 1011.12 1010.67 1010.26 1009.87 1009.50 1009.17 1008.86 1008.59 1008.34 1008.13 1007.96 1007.81 1007.70 1007.62 1007.57 1007.56 1007.57 1007.62 1007.70 1007.81 1007.95 1008.13 1008.35 1008.60 1008.88 1009.18 1009.51 1009.85 1010.21 1010.58 1010.96
1016.56 1016.31 1016.01 1015.66 1015.27 1014.83 1014.35 1013.85 1013.33 1012.81 1012.30 1011.79 1011.31 1010.85 1010.42 1010.02 1009.65 1009.31 1009.00 1008.72 1008.48 1008.26 1008.08 1007.93 1007.82 1007.74 1007.69 1007.68 1007.70 1007.76 1007.85 1007.97 1008.12 1008.31 1008.53 1008.78 1009.05 1009.35 1009.68 1010.02 1010.38 1010.76 1011.15 1011.55
Thickness
5784 5792 5793 5790 5792 5795 5796 5801 5799 5805 5810 5818 5825 5829 5832 5835 5835 5833 5832 5831 5829 5827 5824 5821 5817 5814 5811 5808 5804 5799 5793 5787 5781 5776 5771 5765 5760 5756 5752 5748 5744 5740 5736 5733
5766 5778 5782 5780 5787 5791 5792 5797 5800 5803 5805 5822 5826 5828 5826 5827 5828 5826 5826 5827 5827 5825 5822 5818 5815 5812 5808 5805 5802 5797 5791 5786 5781 5774 5768 5763 5758 5753 5749 5744 5740 5736 5732 5729
5755 5767 5766 5762 5780 5785 5787 5793 5796 5792 5802 5814 5813 5814 5817 5820 5822 5822 5824 5824 5823 5822 5820 5818 5815 5812 5807 5804 5800 5794 5789 5784 5779 5773 5766 5761 5756 5750 5745 5740 5736 5731 5727 5723
5752 5746 5733 5769 5789 5789 5784 5786 5794 5797 5802 5806 5807 5812 5816 5817 5817 5817 5820 5821 5821 5820 5818 5817 5814 5811 5807 5803 5797 5792 5786 5781 5777 5771 5765 5759 5753 5747 5741 5736 5731 5727 5723 5719
5743 5737 5746 5759 5773 5777 5774 5773 5786 5787 5791 5798 5804 5808 5809 5813 5814 5814 5817 5819 5819 5819 5819 5816 5812 5809 5803 5798 5794 5788 5783 5779 5775 5770 5763 5756 5750 5743 5737 5732 5727 5723 5719 5715
5733 5729 5731 5753 5770 5776 5770 5759 5777 5780 5781 5787 5792 5789 5797 5804 5807 5809 5811 5813 5813 5814 5814 5811 5808 5805 5799 5793 5789 5784 5781 5777 5772 5767 5760 5753 5747 5740 5733 5728 5723 5720 5716 5712
5725 5725 5740 5753 5763 5762 5743 5751 5769 5774 5775 5778 5779 5783 5788 5794 5797 5800 5803 5805 5806 5806 5804 5803 5801 5798 5792 5788 5784 5782 5778 5772 5767 5762 5756 5750 5743 5736 5730 5725 5720 5716 5712 5708
5719 5716 5725 5746 5751 5746 5747 5758 5763 5765 5768 5769 5771 5776 5780 5783 5786 5790 5792 5795 5797 5795 5794 5794 5792 5789 5785 5782 5780 5776 5772 5766 5760 5756 5752 5746 5737 5730 5725 5721 5715 5711 5707 5704
5719 5721 5728 5738 5739 5742 5747 5748 5752 5756 5759 5760 5761 5765 5769 5772 5775 5779 5782 5785 5786 5785 5783 5782 5782 5781 5777 5775 5773 5769 5765 5759 5754 5749 5745 5740 5733 5726 5720 5715 5714 5710 5706 5702
5706 5715 5721 5726 5730 5733 5738 5740 5745 5748 5751 5752 5752 5755 5758 5761 5764 5767 5771 5774 5775 5774 5773 5772 5773 5772 5770 5767 5765 5761 5756 5752 5747 5741 5736 5732 5728 5724 5718 5714 5711 5708 5704 5700
5695 5704 5709 5714 5719 5724 5728 5732 5736 5739 5742 5743 5745 5745 5747 5749 5753 5756 5759 5763 5764 5763 5762 5763 5763 5762 5761 5758 5755 5752 5748 5745 5741 5736 5731 5726 5722 5718 5715 5710 5708 5703 5702 5699
5690 5697 5700 5704 5711 5716 5717 5720 5724 5727 5730 5733 5735 5736 5738 5740 5744 5746 5749 5752 5753 5754 5754 5753 5753 5752 5750 5749 5747 5743 5740 5737 5734 5731 5726 5722 5716 5710 5703 5701 5697 5693 5691 5691
5686 5691 5694 5698 5701 5706 5708 5712 5715 5718 5720 5722 5725 5727 5729 5730 5734 5736 5739 5741 5742 5743 5744 5743 5743 5741 5740 5739 5737 5734 5732 5730 5727 5725 5721 5717 5712 5707 5700 5693 5687 5684 5682 5680
5678 5679 5680 5686 5691 5695 5699 5702 5706 5709 5711 5714 5716 5718 5719 5721 5723 5725 5728 5731 5734 5734 5734 5734 5733 5731 5731 5729 5727 5724 5723 5720 5719 5717 5715 5711 5708 5704 5700 5695 5689 5685 5678 5673
5668 5671 5674 5678 5681 5684 5688 5691 5693 5696 5700 5702 5705 5707 5708 5710 5712 5714 5719 5722 5724 5725 5724 5724 5723 5722 5722 5720 5718 5715 5714 5712 5710 5709 5707 5704 5702 5699 5697 5694 5691 5686 5681 5672
5659 5663 5666 5667 5670 5673 5677 5680 5682 5685 5688 5691 5693 5696 5698 5701 5703 5706 5709 5711 5712 5713 5713 5713 5713 5713 5712 5711 5710 5709 5707 5702 5700 5700 5698 5696 5695 5693 5692 5689 5686 5683 5679 5674
5649 5651 5654 5656 5659 5662 5666 5669 5672 5674 5677 5679 5683 5686 5688 5690 5693 5695 5697 5700 5701 5702 5703 5703 5703 5703 5702 5701 5701 5701 5699 5694 5689 5691 5691 5689 5688 5686 5685 5684 5682 5679 5675 5671
5645 5646 5648 5649 5650 5652 5655 5659 5662 5664 5667 5671 5674 5676 5677 5679 5681 5683 5686 5689 5690 5690 5692 5693 5693 5693 5693 5693 5692 5691 5689 5687 5685 5684 5684 5682 5681 5680 5679 5677 5675 5671 5667 5662
5637 5638 5639 5640 5642 5643 5645 5648 5651 5655 5658 5662 5664 5666 5668 5670 5671 5673 5676 5677 5677 5677 5680 5682 5680 5682 5684 5683 5681 5681 5680 5680 5679 5678 5676 5672 5671 5671 5671 5669 5667 5664 5661 5656
5629 5630 5631 5632 5633 5635 5638 5640 5644 5646 5650 5654 5656 5657 5658 5661 5662 5664 5665 5666 5669 5670 5670 5671 5672 5673 5674 5674 5671 5674 5673 5673 5672 5670 5668 5667 5665 5664 5663 5662 5660 5657 5654 5651
5621 5622 5623 5624 5625 5628 5632 5633 5635 5638 5642 5645 5647 5648 5650 5652 5653 5654 5656 5657 5659 5660 5660 5659 5662 5663 5664 5663 5661 5666 5666 5665 5664 5662 5661 5660 5659 5657 5656 5654 5652 5650 5647 5644
5614 5615 5616 5617 5619 5622 5625 5627 5629 5631 5633 5636 5638 5641 5642 5643 5645 5646 5647 5647 5648 5647 5649 5651 5653 5652 5653 5652 5657 5658 5658 5658 5657 5656 5654 5653 5651 5650 5648 5646 5644 5642 5639 5636
5608 5609 5610 5611 5614 5616 5618 5620 5622 5624 5626 5628 5630 5631 5634 5635 5638 5638 5639 5640 5641 5638 5639 5641 5639 5639 5640 5645 5649 5649 5649 5649 5648 5647 5646 5645 5645 5643 5640 5638 5636 5634 5631 5628
5601 5603 5605 5607 5609 5611 5611 5614 5616 5617 5618 5620 5622 5623 5625 5627 5629 5631 5631 5629 5629 5628 5631 5629 5627 5629 5630 5637 5639 5640 5641 5641 5640 5640 5639 5638 5637 5635 5633 5631 5629 5626 5623 5620
5596 5598 5600 5601 5603 5605 5606 5607 5608 5609 5611 5613 5615 5616 5618 5620 5620 5621 5621 5621 5619 5620 5622 5621 5619 5620 5624 5628 5629 5631 5631 5631 5631 5630 5630 5629 5628 5626 5624 5622 5620 5618 5615 5612
5592 5594 5595 5596 5598 5599 5602 5603 5603 5604 5605 5606 5607 5609 5610 5611 5612 5612 5612 5612 5611 5610 5612 5613 5613 5613 5615 5617 5619 5620 5620 5620 5619 5620 5619 5618 5618 5616 5614 5612 5610 5608 5606 5603
5589 5590 5590 5592 5593 5595 5597 5598 5598 5598 5598 5599 5600 5601 5602 5603 5604 5604 5604 5603 5603 5603 5604 5604 5605 5605 5606 5607 5608 5609 5609 5609 5608 5608 5608 5607 5605 5604 5602 5600 5599 5597 5594 5592